{"data":{"norad_id":60578,"intl_designator":"2024-149DQ","name":"LEMUR-2-SQUIRRELCOMM","alt_names":[],"object_type":"PAYLOAD","status":"ACTIVE","operator":null,"country":"US","launch_date":"2024-08-16","launch_site_code":"AFWTR","launch_vehicle":null,"mission":null,"orbit_class":"UNKNOWN","rcs_meters":null,"size_class":null,"mass_kg":null,"dimensions":null,"purposes":["earth_obs"],"wikipedia_slug":null,"has_3d_model":false,"image_url":null,"decayed_at":null,"tle_current":{"epoch":"2026-09-19T00:55:01.611840Z","epoch_age_seconds":140827,"freshness":"FRESH","line1":"1 60578U 24149DQ  26262.03821310  .00004669  00000+0  30704-3 0  9993","line2":"2 60578  97.6652 342.6847 0006684  92.9246 267.2747 15.08052674114541","mean_motion":15.08052674,"eccentricity":0.0006684,"inclination_deg":97.6652,"raan_deg":342.6847,"arg_perigee_deg":92.9246,"mean_anomaly_deg":267.2747,"bstar":0.00030704,"rev_number":11454,"period_min":95.48738083402,"perigee_km":537.52545603535,"apogee_km":546.77649700236,"semimajor_km":6920.2879765189,"source":"CELESTRAK","updated_at":"2026-09-20T09:00:34.872054Z"}}}